Location: Goheenville
(40.9070°N, 79.3720°W)
Time: 11:55:00
(UTC-04:00)

Cosmos 1727 Rocket - Visible Passes

Search period start: 01 August 2014 00:00
Search period end: 11 August 2014 00:00
Orbit: 962 x 996 km, 82.9° (Epoch: 31 July)

Date Brightness Start Highest point End Pass type
(mag) Time Alt. Az. Time Alt. Az. Time Alt. Az.
01 Aug 5.6 00:49:09 22° W 00:51:11 26° WNW 00:56:17 10° NNW visible
01 Aug 5.8 21:45:44 11° E 21:47:23 12° ENE 21:49:25 10° ENE visible
01 Aug 3.9 23:30:27 58° S 23:31:47 87° E 23:38:04 10° N visible
02 Aug 6.3 01:15:09 10° W 01:18:07 14° WNW 01:21:13 10° NW visible
02 Aug 5.2 22:11:43 21° ESE 22:13:16 23° E 22:18:00 10° NE visible
02 Aug 4.6 23:56:26 39° SW 23:58:16 51° WNW 00:04:21 10° N visible
03 Aug 4.4 22:37:40 35° SE 22:39:21 43° E 22:45:11 10° NNE visible
04 Aug 5.5 00:22:23 22° WSW 00:24:56 28° WNW 00:30:15 10° NNW visible
04 Aug 5.9 21:20:31 10° E 21:21:18 10° ENE 21:22:04 10° ENE visible
04 Aug 3.9 23:03:36 46° S 23:05:36 80° E 23:11:53 10° N visible
05 Aug 6.3 00:48:18 10° W 00:51:49 16° WNW 00:55:25 10° NNW visible
05 Aug 5.3 21:44:47 17° ESE 21:47:09 21° E 21:51:37 10° NE visible
05 Aug 4.4 23:29:29 34° SW 23:32:03 57° W 23:38:13 10° N visible
06 Aug 4.5 22:10:39 27° SE 22:13:12 39° E 22:18:55 10° NNE visible
06 Aug 5.4 23:55:21 20° WSW 23:58:41 31° WNW 00:04:11 10° NNW visible
07 Aug 3.9 22:36:27 33° S 22:39:25 72° E 22:45:41 10° NNE visible
08 Aug 6.2 00:21:34 10° WSW 00:25:32 17° WNW 00:29:32 10° NNW visible
08 Aug 5.4 21:17:31 12° ESE 21:21:03 19° E 21:25:12 10° NE visible
08 Aug 4.3 23:02:13 26° SSW 23:05:50 63° W 23:12:04 10° N visible
09 Aug 4.6 21:43:13 18° SE 21:47:03 35° E 21:52:38 10° NNE visible
09 Aug 5.3 23:27:54 15° SW 23:32:26 35° WNW 23:38:07 10° N visible
10 Aug 4.0 22:08:51 20° S 22:13:15 65° E 22:19:28 10° NNE visible
10 Aug 6.2 23:54:56 10° WSW 23:59:15 19° WNW 00:00:00 19° WNW visible
